GW3853 Weather Reports


time (UTC)temp
F
wind
direction
speed
knots
gust
knots
rain 1hr
in
rain 24hr
in
rain mn
in
humidity
%
barometer
mb
20260507081515 44 19 0.0 1.7 0.00 0.49 0.06 93 1005.6
20260507080015 44 19 0.0 2.6 0.00 0.49 0.06 92 1006.0
20260507074510 45 216 0.0 1.7 0.00 0.49 0.06 92 1006.2
20260507073013 45 208 0.0 3.5 0.00 0.49 0.06 90 1006.2
20260507071548 45 359 1.7 3.5 0.00 0.49 0.06 91 1005.8
20260507070020 45 14 0.9 2.6 0.00 0.49 0.06 92 1005.6
20260507064522 45 42 0.0 1.7 0.00 0.49 0.06 94 1005.4
20260507063012 46 63 1.7 6.1 0.00 0.49 0.06 92 1005.2
20260507061503 46 1 0.9 3.5 0.00 0.49 0.06 95 1005.2
20260507060004 46 30 0.0 1.7 0.00 0.49 0.06 95 1005.2
20260507054504 47 30 0.0 1.7 0.02 0.49 0.06 95 1004.8
20260507053013 47 30 0.0 1.7 0.04 0.49 0.06 95 1004.7
20260507051527 47 75 0.0 1.7 0.05 0.49 0.06 95 1005.1
20260507050003 47 354 0.9 3.5 0.06 0.49 0.06 94 1005.0
20260507044505 47 250 0.0 5.2 0.04 0.47 0.04 94 1005.0
20260507043011 48 15 0.9 3.5 0.03 0.45 0.02 93 1005.3
20260507041512 48 2 1.7 6.1 0.05 0.44 0.01 93 1005.3
20260507040017 49 1 0.0 4.3 0.07 0.43 0.00 94 1005.2
20260507034532 49 326 1.7 4.3 0.08 0.43 0.43 93 1005.2
20260507033014 50 51 0.9 3.5 0.07 0.42 0.42 94 1005.0
20260507031508 51 96 0.0 4.3 0.04 0.39 0.39 95 1004.6
20260507030024 52 1 0.9 5.2 0.01 0.36 0.36 94 1004.5
20260507024517 52 143 0.0 1.7 0.01 0.35 0.35 95 1004.3
20260507023026 53 107 0.0 1.7 0.02 0.35 0.35 95 1004.0
20260507021506 53 244 0.0 2.6 0.06 0.35 0.35 95 1004.2
20260507020017 53 340 0.0 2.6 0.06 0.35 0.35 95 1004.1
20260507014516 54 359 0.0 3.5 0.05 0.34 0.34 96 1004.2
20260507013021 55 160 0.0 1.7 0.04 0.33 0.33 97 1004.4
20260507011507 54 4 0.9 1.7 0.00 0.29 0.29 97 1004.3
20260507010016 54 188 0.0 1.7 0.01 0.29 0.29 97 1004.0
20260507004514 54 136 0.9 2.6 0.01 0.29 0.29 97 1004.0
20260507003021 54 241 0.0 2.6 0.01 0.29 0.29 97 1004.0
20260507001524 54 145 0.9 2.6 0.03 0.29 0.29 97 1004.0
20260507000012 55 133 0.9 4.3 0.02 0.28 0.28 97 1004.0
20260506234511 55 124 0.0 2.6 0.02 0.28 0.28 96 1003.9
20260506233016 55 221 0.9 1.7 0.03 0.28 0.28 96 1004.3
20260506231520 55 140 0.0 1.7 0.01 0.26 0.26 96 1004.3
20260506230023 55 172 0.9 2.6 0.01 0.28 0.26 96 1004.5
20260506224510 55 151 0.0 2.6 0.02 0.29 0.26 96 1004.6
20260506223013 55 75 0.0 3.5 0.01 0.28 0.25 96 1004.8
20260506221520 55 187 0.9 2.6 0.01 0.28 0.25 96 1004.9
20260506220033 55 141 0.9 3.5 0.02 0.28 0.25 96 1005.1
20260506214527 56 127 0.9 1.7 0.03 0.27 0.24 96 1005.1
20260506213013 56 176 0.0 1.7 0.04 0.27 0.24 96 1005.2
20260506211516 56 342 0.0 1.7 0.06 0.27 0.24 96 1005.2
20260506210007 55 212 0.9 3.5 0.06 0.26 0.23 96 1005.1
20260506204508 55 121 0.9 2.6 0.04 0.24 0.21 96 1004.9
20260506203019 55 176 0.9 2.6 0.05 0.23 0.20 95 1005.2
20260506201514 56 134 0.9 1.7 0.04 0.21 0.18 95 1005.4
20260506200022 56 143 0.0 1.7 0.05 0.20 0.17 95 1005.6
20260506194505 56 125 0.0 2.6 0.08 0.20 0.17 94 1005.8
20260506193008 56 359 0.0 1.7 0.10 0.18 0.15 94 1006.0
20260506191514 56 65 0.0 2.6 0.11 0.17 0.14 93 1005.7
20260506190023 57 165 0.0 1.7 0.10 0.15 0.12 93 1006.0
20260506184504 58 8 0.0 1.7 0.08 0.12 0.09 92 1006.1
20260506183006 58 293 0.0 1.7 0.04 0.08 0.05 91 1006.2
20260506181512 58 147 0.0 1.7 0.02 0.06 0.03 90 1006.3
20260506180016 59 185 0.0 1.7 0.01 0.05 0.02 88 1006.4
20260506174519 59 162 0.0 1.7 0.00 0.04 0.01 88 1006.5
20260506173005 59 129 0.0 1.7 0.00 0.04 0.01 86 1006.8
20260506171508 59 158 0.0 1.7 0.00 0.04 0.01 85 1007.0
20260506170014 59 186 0.9 1.7 0.01 0.04 0.01 86 1007.4
20260506164518 58 196 0.0 3.5 0.01 0.04 0.01 88 1007.6
20260506163022 57 115 0.9 1.7 0.01 0.04 0.01 90 1007.6
20260506161506 58 162 0.0 1.7 0.01 0.04 0.01 88 1008.2
20260506160014 58 162 0.0 1.7 0.00 0.03 0.00 84 1008.6
20260506154520 58 176 0.0 1.7 0.00 0.03 0.00 82 1008.8
20260506151523 57 358 0.0 1.7 0.00 0.03 0.00 82 1008.6
20260506150008 57 166 0.0 1.7 0.00 0.03 0.00 83 1008.6
20260506144520 56 131 0.0 2.6 0.00 0.03 0.00 84 1008.3
20260506143025 56 193 0.9 2.6 0.00 0.03 0.00 83 1008.4
20260506141532 56 121 0.9 1.7 0.00 0.03 0.00 84 1008.7
20260506140024 56 219 0.0 2.6 0.00 0.03 0.00 85 1009.0
20260506134511 55 129 0.9 1.7 0.00 0.03 0.00 85 1009.0
20260506133017 55 82 0.9 1.7 0.00 0.03 0.00 85 1008.8
20260506131524 55 89 0.0 1.7 0.00 0.03 0.00 85 1008.8
20260506130024 55 89 0.0 1.7 0.00 0.03 0.00 85 1008.9
20260506124525 55 113 0.9 1.7 0.00 0.03 0.00 86 1009.1
20260506123015 54 179 0.0 1.7 0.00 0.03 0.00 86 1009.4
20260506121503 54 228 0.0 1.7 0.00 0.03 0.00 87 1009.5
20260506120013 54 159 0.0 1.7 0.00 0.03 0.00 87 1009.7
20260506114508 54 139 0.9 1.7 0.00 0.03 0.00 87 1009.5
20260506113012 53 203 0.0 0.0 0.00 0.03 0.00 89 1009.6
20260506111516 53 138 0.0 0.9 0.00 0.03 0.00 89 1009.6
20260506110029 0 0.0 0.0 0.00 0.03 0.00 1009.5
20260506104529 0 0.0 0.0 0.00 0.03 0.00 1009.7
20260506103029 0 0.0 0.0 0.00 0.03 0.00 1009.5
20260506101525 0 0.0 0.0 0.00 0.03 0.00 1009.4
20260506100027 0 0.0 0.0 0.00 0.03 0.00 1009.6
20260506094530 0 0.0 0.0 0.00 0.03 0.00 1009.6
20260506093033 0 0.0 0.0 0.00 0.03 0.00 1009.4
20260506091531 0 0.0 0.0 0.00 0.03 0.00 1009.2
20260506090028 0 0.0 0.0 0.00 0.03 0.00 1009.1